Location: Morlupo
(42.1333°N, 12.5000°E)
Time: 17:08:32
(UTC+00:00)

Cosmos 2034 Rocket - Pass Details

Date: 18 September 2020
Orbit: 957 x 1001 km, 82.9° (Epoch: 20 October)

Event Time Altitude Azimuth Distance (km) Brightness Sun altitude
Rises 18:52:10 0° 181° (S) 3,709 6.9 -18.7°
Reaches altitude 10° 18:54:41 10° 180° (S) 2,764 6.2 -19.1°
Maximum altitude 19:01:03 79° 95° (E) 1,022 3.9 -20.2°
Drops below altitude 10° 19:07:25 10° 10° (N) 2,770 6.5 -21.3°
Sets 19:09:56 0° 9° (N) 3,718 7.2 -21.7°
